DW2070 Weather Reports


Display with metric or nautical units.
time (UTC)temp
F
wind
direction
speed
MPH
gust
MPH
rain 1hr
in
rain 24hr
in
rain mn
in
humidity
%
barometer
mb
20260503233004 66 248 4.0 10.0 0.00 0.00 0.00 59 1013.0
20260503232004 67 227 4.0 10.0 0.00 0.00 0.00 59 1013.3
20260503231004 67 230 4.0 10.0 0.00 0.00 0.00 60 1013.2
20260503230004 66 248 4.0 9.0 0.00 0.00 0.00 60 1013.4
20260503225004 67 272 3.0 10.0 0.00 0.00 0.00 60 1013.4
20260503224004 66 259 4.0 10.0 0.00 0.00 0.00 58 1013.6
20260503223004 66 252 4.0 9.0 0.00 0.00 0.00 59 1013.7
20260503222004 67 232 4.0 8.0 0.00 0.00 0.00 59 1014.0
20260503221004 66 227 3.0 7.0 0.00 0.00 0.00 58 1014.1
20260503220004 66 250 3.0 9.0 0.00 0.00 0.00 58 1014.1
20260503215025 66 256 3.0 8.0 0.00 0.00 0.00 58 1014.2
20260503214004 66 262 4.0 8.0 0.00 0.00 0.00 58 1014.3
20260503213004 66 246 5.0 13.0 0.00 0.00 0.00 58 1014.4
20260503212025 66 255 3.0 10.0 0.00 0.00 0.00 59 1014.4
20260503211004 65 240 3.0 9.0 0.00 0.00 0.00 60 1014.4
20260503210004 65 293 2.0 9.0 0.00 0.00 0.00 60 1014.5
20260503205004 65 305 3.0 5.0 0.00 0.00 0.00 60 1014.6
20260503204004 64 241 3.0 9.0 0.00 0.00 0.00 60 1014.6
20260503202004 65 292 3.0 6.0 0.00 0.00 0.00 63 1014.6
20260503201004 64 273 3.0 11.0 0.00 0.00 0.00 64 1014.6
20260503200025 64 262 3.0 7.0 0.00 0.00 0.00 65 1014.8
20260503195004 63 264 4.0 8.0 0.00 0.00 0.00 65 1014.9
20260503194003 63 252 4.0 9.0 0.00 0.00 0.00 67 1015.0
20260503193004 63 240 4.0 10.0 0.00 0.00 0.00 67 1015.1
20260503192004 64 262 5.0 10.0 0.00 0.00 0.00 67 1015.0
20260503191025 64 250 4.0 12.0 0.00 0.00 0.00 65 1014.9
20260503190004 65 208 3.0 6.0 0.00 0.00 0.00 66 1015.0
20260503185004 64 222 4.0 11.0 0.00 0.00 0.00 67 1015.0
20260503183003 64 231 4.0 9.0 0.00 0.00 0.00 68 1015.0
20260503182004 65 207 3.0 7.0 0.00 0.00 0.00 66 1015.0
20260503181004 65 236 1.0 6.0 0.00 0.00 0.00 66 1015.1
20260503180004 65 0 0.0 3.0 0.00 0.00 0.00 65 1015.1
20260503175004 64 0 0.0 0.0 0.00 0.00 0.00 65 1015.0
20260503174003 64 0 0.0 0.0 0.00 0.00 0.00 66 1015.0
20260503173004 64 0 0.0 0.0 0.00 0.00 0.00 67 1015.0
20260503172003 64 270 1.0 1.0 0.00 0.00 0.00 66 1015.0
20260503171003 63 270 2.0 4.0 0.00 0.00 0.00 68 1015.0
20260503131003 58 0 0.0 2.0 0.00 0.00 0.00 82 1013.0
20260503081005 59 282 2.0 7.0 0.00 0.00 0.00 82 1013.7
20260503071004 59 302 2.0 7.0 0.00 0.00 0.00 84 1013.5
20260503055004 60 228 2.0 5.0 0.00 0.00 0.00 84 1013.3
20260503054004 60 253 2.0 5.0 0.00 0.00 0.00 84 1013.4
20260503053004 60 264 2.0 5.0 0.00 0.00 0.00 84 1013.3
20260503052004 60 264 2.0 5.0 0.00 0.00 0.00 84 1013.3
20260503051004 60 265 2.0 5.0 0.00 0.00 0.00 83 1013.3
20260503050005 60 271 2.0 7.0 0.00 0.00 0.00 83 1013.1
20260503045004 60 277 1.0 4.0 0.00 0.00 0.00 83 1012.9
20260503044004 60 284 0.0 4.0 0.00 0.00 0.00 83 1012.8
20260503043004 60 283 1.0 3.0 0.00 0.00 0.00 83 1012.6
20260503042004 60 283 2.0 6.0 0.00 0.00 0.00 82 1012.5
20260503041025 60 288 1.0 4.0 0.00 0.00 0.00 82 1012.5
20260503040004 61 289 2.0 4.0 0.00 0.00 0.00 82 1012.3
20260503035004 61 284 2.0 4.0 0.00 0.00 0.00 82 1012.1
20260503034004 61 264 3.0 9.0 0.00 0.00 0.00 81 1012.1
20260503033004 61 262 3.0 8.0 0.00 0.00 0.00 81 1012.0
20260503032004 62 261 2.0 8.0 0.00 0.00 0.00 81 1011.7
20260503031004 62 210 3.0 7.0 0.00 0.00 0.00 81 1011.7
20260503030025 62 239 3.0 7.0 0.00 0.00 0.00 80 1011.7
20260503025004 62 248 3.0 6.0 0.00 0.00 0.00 80 1011.5
20260503024004 62 244 4.0 8.0 0.00 0.00 0.00 79 1011.5
20260503022004 63 253 4.0 9.0 0.00 0.00 0.00 77 1011.3
20260503021004 64 277 3.0 8.0 0.00 0.00 0.00 76 1011.2
20260503020004 64 269 4.0 7.0 0.00 0.00 0.00 75 1011.1
20260503015004 65 260 4.0 10.0 0.00 0.00 0.00 75 1011.2
20260503014004 65 250 3.0 7.0 0.00 0.00 0.00 74 1011.2
20260503013004 66 271 4.0 8.0 0.00 0.00 0.00 73 1011.2
20260503012004 67 265 3.0 10.0 0.00 0.00 0.00 71 1011.3
20260503011025 68 252 3.0 6.0 0.00 0.00 0.00 70 1011.2
20260503010025 68 275 4.0 12.0 0.00 0.00 0.00 69 1011.2
20260503005004 69 257 4.0 9.0 0.00 0.00 0.00 68 1011.1
20260503004025 70 248 5.0 12.0 0.00 0.00 0.00 67 1011.1
20260503003004 70 249 4.0 12.0 0.00 0.00 0.00 65 1011.2
20260503001004 72 262 4.0 9.0 0.00 0.00 0.00 63 1011.2
20260503000025 72 251 5.0 10.0 0.00 0.00 0.00 64 1011.2
20260502235004 72 239 5.0 11.0 0.00 0.00 0.00 64 1011.3
20260502234004 71 238 4.0 9.0 0.00 0.00 0.00 64 1011.4